Voltar ao catálogo

BREEZE-M R/B

AtivoMEO
NORAD 39376·ROCKET BODY·🇷🇺 Russia

Lançado Nov 11, 2013 de Baikonur Cosmodrome

Loading…

Próximas Passagens (próximas 24 horas)

TLE

AtualizadoSource: Space-Track

Época: Sep 14, 2026, 09:35 UTC

1 39376U 13062B   26257.39974458 -.00000227  00000-0  00000-0 0  9993
2 39376   9.6045  50.7670 0233163 119.1511 243.2961  1.04210290 48879

Acompanhe BREEZE-M R/B em tempo real com AllMySat

Download on the App Store